Location: Paddlesworth
(51.1000°N, 1.1333°E)
Time: 23:05:55
(UTC+00:00)

ARIANE 5 R/B - Pass Details

Date: 11 May 2021
Orbit: 620 x 656 km, 98.1° (Epoch: 13 June)

Event Time Altitude Azimuth Distance (km) Brightness Sun altitude
Exits shadow 20:52:23 13° 153° (SSE) 1,777 4.3 -10.4°
Maximum altitude 20:56:09 68° 72° (ENE) 673 2.6 -10.8°
Drops below altitude 10° 21:00:28 10° 350° (N) 2,002 6.2 -11.3°
Sets 21:02:40 0° 348° (NNW) 2,915 7.2 -11.5°
